Wind_Speed
17 17 14 15 17 19 21 35 38 26 26 22 18 15 16 15 13 11 9 7 6 6 6 7 9 10 11 13 15 16 14 13 14 16 18 16 19 21 21 18 19 17 20 21 26
16 12 15 16 16 21 32 43 35 31 24 21 19 17 16 14 13 11 9 9 8 7 6 6 8 9 11 13 14 15 15 15 16 16 20 21 21 21 22 19 18 21 21 26 28
24 14 16 19 21 21 42 40 38 30 26 23 22 22 19 16 15 11 10 8 7 5 5 5 7 8 10 12 13 15 16 16 18 20 22 23 23 26 27 27 20 25 26 25 27
32 27 19 19 21 37 45 37 32 27 22 19 18 19 16 15 10 8 7 3 3 3 5 6 8 9 11 13 14 15 16 18 19 22 23 26 26 27 28 26 22 24 27 26 24
31 24 18 20 25 32 35 27 28 26 21 19 18 17 15 11 10 6 4 3 3 4 5 7 9 9 11 13 13 14 16 20 22 23 24 25 26 25 28 24 25 25 26 27 26
41 42 36 34 33 33 27 24 20 17 19 17 15 15 12 4 4 5 3 2 4 3 5 8 9 10 13 13 15 17 17 18 20 21 22 24 23 23 22 19 23 22 22 23 26
41 37 39 37 35 33 28 21 17 16 15 14 12 10 7 5 3 2 1 2 3 5 7 9 10 11 12 13 15 16 17 16 17 14 17 18 23 20 11 18 21 21 22 20 23
36 37 38 38 33 28 25 24 20 16 13 14 12 8 7 5 3 3 4 6 7 10 10 9 10 9 10 11 9 9 12 12 5 8 13 17 24 14 9 12 13 16 20 24 30
41 36 34 32 30 27 25 21 19 18 14 11 10 9 6 5 5 6 8 9 7 8 8 8 8 6 5 8 10 8 14 9 11 10 12 15 18 7 9 10 15 17 18 30 34
36 33 28 27 25 24 21 20 18 16 15 11 9 7 5 5 5 7 10 12 11 9 9 11 11 8 7 11 11 10 16 16 15 11 13 19 24 20 19 17 18 19 27 32 34
30 28 26 25 24 23 22 18 19 20 16 15 11 10 9 9 9 10 17 18 13 10 8 10 14 8 9 10 12 16 17 20 20 17 17 22 27 24 22 21 21 27 31 33 32
28 27 26 24 23 22 18 13 16 15 15 15 13 12 9 9 13 15 16 17 14 7 4 7 7 5 13 18 11 13 17 19 20 15 15 21 23 26 25 21 19 28 31 32 31
21 20 18 17 14 12 7 8 8 9 8 15 12 14 13 10 13 15 15 15 11 7 7 11 7 11 17 16 13 15 14 14 13 15 17 22 32 32 20 23 23 27 30 29 33
17 17 16 15 14 11 11 8 7 8 4 10 14 13 13 10 9 14 15 14 11 9 10 5 7 13 11 12 13 17 11 13 16 16 8 5 9 15 9 21 24 25 23 30 31
17 17 16 16 16 14 11 9 7 4 5 9 11 11 11 9 10 11 13 13 10 9 10 6 12 13 11 9 15 10 8 11 9 5 12 13 7 10 8 17 19 17 24 23 18
16 15 15 16 17 16 14 10 7 3 2 6 8 11 12 12 10 12 11 11 10 13 10 9 10 10 12 9 5 7 9 11 6 6 4 10 14 11 17 21 20 20 19 15 12
16 14 13 14 15 15 15 11 4 5 10 9 11 13 10 14 11 12 11 13 12 11 12 14 6 10 10 10 4 6 11 3 2 2 5 5 11 20 12 15 17 16 14 13 12
15 15 14 14 14 14 14 10 4 10 9 12 14 10 10 15 12 14 8 10 13 14 13 9 5 8 12 12 6 3 1 2 3 2 4 6 8 7 6 11 13 12 11 11 13
17 16 14 14 14 14 13 6 6 10 11 13 12 10 12 12 14 12 13 10 9 13 8 6 5 7 10 11 7 2 2 4 4 8 5 6 10 13 12 14 11 11 12 12 13
18 17 16 15 14 13 12 9 10 10 12 12 8 6 9 11 13 12 10 9 13 13 14 8 10 7 10 12 8 6 6 3 3 3 4 7 10 14 11 12 12 11 10 10 9
18 18 16 18 15 12 11 11 13 12 12 11 11 9 11 13 15 11 5 13 11 17 16 12 7 5 9 4 6 8 6 4 6 5 4 3 7 10 8 11 12 13 11 9 8
19 18 20 15 14 10 11 15 18 14 12 13 12 10 10 12 12 7 8 12 16 15 18 10 9 12 11 9 10 13 14 11 6 3 7 5 10 4 5 8 13 15 13 9 8
20 18 12 16 13 13 14 18 16 11 12 13 11 13 15 14 10 10 12 15 13 20 12 12 7 12 5 5 11 12 11 14 15 16 15 3 6 6 13 18 19 14 13 13 10
22 18 17 15 9 16 20 18 16 16 17 13 15 14 14 16 11 12 16 15 22 23 18 14 13 14 15 19 21 22 23 21 19 11 10 25 31 24 22 24 22 24 17 14 14
19 19 18 19 19 19 20 17 16 16 16 15 14 15 16 15 19 14 20 23 26 25 18 14 22 24 24 25 27 29 27 26 31 31 22 28 31 23 23 21 20 21 21 15 17
22 20 21 23 21 19 20 21 17 14 16 20 18 16 18 19 17 22 21 22 27 25 25 28 16 30 31 14 11 27 27 27 28 32 36 33 29 15 17 15 15 13 13 14 17
25 24 23 26 26 25 21 18 19 20 19 16 21 25 23 24 23 23 24 25 29 31 30 27 16 15 12 14 29 15 6 9 15 20 23 26 18 20 20 19 17 16 14 12 14
Wind_Direction
42 70 78 93 118 117 127 144 151 155 143 152 146 152 152 156 158 164 168 178 183 203 213 212 218 213 207 206 204 209 207 198 210 227 237 223 238 245 247 248 249 247 251 259 258
50 81 99 104 115 106 142 154 131 135 138 139 143 143 145 150 151 161 169 179 181 187 192 211 210 206 203 208 211 212 215 213 218 227 241 250 250 263 266 256 259 261 257 256 263
46 55 78 82 96 113 134 122 123 125 135 140 144 142 146 146 151 153 166 180 178 188 200 217 226 223 222 224 226 230 232 229 236 239 250 256 263 268 273 269 271 265 265 265 271
56 64 84 80 105 123 107 109 114 121 122 124 138 141 142 130 134 130 126 150 178 203 215 220 225 233 233 232 232 237 239 245 247 253 252 260 262 264 269 277 275 269 272 270 267
60 66 66 83 92 120 119 108 107 104 101 105 117 128 125 112 111 123 141 173 208 220 234 245 256 255 240 251 250 248 245 245 250 253 260 260 265 269 267 277 271 269 266 271 270
65 67 70 84 102 116 108 103 99 111 97 99 108 106 111 133 89 94 103 202 239 265 277 274 271 261 254 262 264 267 267 266 265 268 268 266 268 270 283 278 273 267 268 268 272
75 74 82 88 97 96 94 99 108 111 109 106 106 110 112 109 155 156 245 282 313 307 289 281 279 280 282 269 260 273 275 272 269 263 261 272 273 282 281 258 263 273 275 273 277
59 78 94 99 107 108 115 116 116 114 111 105 102 111 100 108 78 17 343 336 336 312 304 304 294 290 285 276 283 293 279 296 285 260 242 267 274 265 252 269 264 267 285 292 279
68 73 87 87 95 103 112 117 112 107 103 98 97 89 59 45 22 356 345 340 327 304 312 299 320 307 332 319 297 290 260 273 285 254 275 270 278 208 206 233 251 266 280 275 278
70 79 76 72 67 63 70 80 86 88 83 85 76 71 67 47 25 13 360 349 349 349 357 1 348 349 347 300 280 292 308 312 299 266 282 279 281 279 234 244 249 267 269 273 281
66 69 74 76 68 63 62 63 69 66 67 64 57 55 41 32 19 3 4 354 354 355 8 328 313 312 322 292 282 282 283 280 277 280 284 281 281 279 271 260 251 260 268 276 289
61 63 68 73 74 76 66 58 62 55 52 56 44 26 9 7 11 14 360 354 346 344 300 289 301 328 301 297 305 302 297 295 289 259 269 271 271 281 282 259 252 262 271 283 289
49 48 43 39 39 39 28 13 15 14 28 37 26 21 15 3 9 6 359 354 349 1 332 296 316 291 297 309 301 299 313 303 305 284 267 292 283 278 283 240 243 259 271 290 302
32 29 29 22 13 3 354 354 359 1 9 18 16 16 10 9 4 5 2 360 349 338 339 337 328 315 313 315 307 306 309 300 292 296 286 280 298 283 297 206 230 256 284 295 299
32 35 32 30 25 16 7 359 356 33 28 355 0 1 4 3 354 4 360 2 355 335 312 319 314 325 323 308 307 314 307 321 311 256 295 235 260 283 232 216 237 267 289 304 319
21 25 29 25 21 17 12 9 19 35 359 347 339 345 350 353 0 357 356 356 358 346 312 319 300 311 324 333 311 347 316 310 302 286 275 249 210 277 222 231 242 279 305 310 330
1 4 7 11 11 13 10 9 20 29 344 341 340 339 341 353 349 347 347 359 354 339 338 327 325 324 322 334 336 342 333 322 311 244 238 309 210 258 260 241 265 287 305 317 312
356 352 345 353 354 3 6 7 24 353 347 339 339 336 351 358 339 341 334 337 349 343 330 338 332 325 329 331 313 295 21 331 251 275 285 206 237 286 273 252 278 296 323 326 322
344 349 336 341 342 347 357 5 356 347 339 336 335 334 346 335 336 328 340 330 325 343 334 307 286 296 299 312 315 281 235 260 269 288 287 232 261 265 253 262 286 314 330 334 327
328 334 338 337 339 341 343 346 344 338 334 333 335 325 328 322 330 323 323 326 330 336 341 296 297 287 302 301 273 267 288 253 215 335 285 287 265 249 261 272 304 307 310 327 337
334 325 321 330 336 346 341 338 331 330 328 329 323 316 328 327 328 326 296 326 340 336 331 315 283 285 301 278 287 287 277 245 263 242 205 285 273 264 275 292 298 294 296 309 333
331 328 322 315 327 337 337 335 328 321 317 318 319 322 320 330 326 313 297 313 323 328 322 311 290 286 298 274 272 279 274 255 242 250 253 283 279 265 298 307 313 294 289 291 303
328 328 328 318 312 314 319 325 332 332 323 316 311 316 322 322 326 308 319 321 328 333 319 306 279 303 306 286 275 264 266 261 255 263 255 210 265 288 304 307 310 310 280 273 275
324 331 327 316 320 317 317 321 320 319 315 318 315 313 317 317 312 305 312 317 324 328 320 306 276 270 261 288 288 277 277 278 266 254 258 249 288 291 297 305 299 306 307 274 262
308 314 321 313 314 310 310 313 320 311 306 309 307 309 310 314 312 308 317 318 317 319 312 307 297 294 295 294 282 281 279 267 254 261 257 279 293 320 309 301 296 286 291 267 256
311 305 301 302 310 315 307 308 309 309 308 303 302 303 307 307 305 304 303 310 308 309 304 304 296 304 306 304 294 293 289 273 265 262 265 278 293 314 323 321 320 317 311 293 262
295 298 292 293 299 299 305 308 303 304 304 297 303 301 299 306 304 302 301 302 297 292 289 289 291 305 297 312 309 292 10 332 304 287 278 269 310 309 318 324 329 322 311 304 279
Height
3030 3028 3029 3029 3031 3036 3038 3045 3056 3065 3070 3075 3079 3083 3086 3090 3094 3098 3100 3102 3103 3104 3105 3105 3106 3107 3109 3110 3110 3110 3112 3113 3114 3114 3113 3114 3117 3118 3121 3122 3121 3123 3124 3125 3123
3032 3032 3031 3034 3037 3039 3042 3048 3057 3067 3072 3076 3080 3084 3088 3092 3095 3098 3101 3102 3102 3103 3105 3105 3105 3106 3107 3108 3107 3107 3108 3109 3110 3111 3109 3112 3115 3115 3116 3117 3119 3118 3119 3118 3118
3040 3040 3039 3039 3041 3041 3049 3055 3064 3069 3074 3078 3082 3085 3089 3094 3097 3099 3101 3101 3102 3103 3104 3104 3105 3105 3106 3106 3106 3105 3105 3105 3106 3108 3109 3108 3110 3110 3110 3111 3115 3112 3111 3114 3113
3048 3049 3048 3048 3049 3052 3057 3064 3068 3075 3080 3083 3086 3088 3092 3095 3101 3101 3102 3103 3104 3104 3104 3103 3103 3103 3103 3104 3103 3103 3101 3102 3103 3103 3104 3103 3103 3105 3104 3105 3108 3107 3106 3106 3108
3055 3055 3056 3056 3060 3062 3065 3071 3075 3082 3085 3089 3091 3094 3097 3099 3101 3102 3102 3103 3103 3103 3102 3102 3101 3100 3100 3099 3099 3098 3098 3097 3098 3099 3099 3098 3097 3097 3097 3101 3100 3100 3100 3100 3101
3062 3062 3061 3064 3070 3075 3075 3081 3087 3089 3091 3094 3097 3097 3097 3101 3101 3101 3101 3102 3101 3101 3101 3100 3099 3097 3096 3096 3096 3094 3094 3094 3093 3094 3093 3091 3092 3091 3094 3093 3093 3094 3094 3095 3094
3074 3072 3071 3075 3080 3083 3085 3087 3090 3092 3094 3096 3097 3098 3100 3103 3103 3103 3103 3102 3102 3102 3101 3099 3097 3096 3095 3094 3092 3092 3091 3089 3089 3089 3087 3086 3085 3087 3088 3086 3086 3087 3089 3090 3089
3093 3088 3084 3083 3084 3087 3089 3091 3094 3096 3097 3097 3099 3101 3101 3102 3103 3103 3102 3101 3101 3099 3098 3096 3094 3093 3092 3092 3091 3091 3088 3085 3085 3084 3085 3085 3080 3083 3083 3083 3083 3084 3084 3084 3081
3103 3105 3103 3100 3099 3097 3097 3098 3097 3097 3099 3101 3103 3103 3104 3104 3104 3103 3102 3100 3100 3098 3096 3094 3093 3092 3093 3092 3092 3089 3087 3085 3084 3084 3084 3082 3077 3079 3078 3079 3079 3080 3080 3077 3076
3109 3109 3112 3112 3111 3110 3109 3106 3104 3103 3103 3104 3106 3108 3107 3106 3104 3102 3101 3099 3097 3095 3094 3093 3092 3092 3092 3092 3090 3087 3085 3083 3082 3083 3081 3079 3074 3073 3074 3075 3075 3074 3071 3070 3071
3119 3118 3115 3113 3113 3114 3113 3114 3115 3113 3111 3110 3109 3107 3106 3106 3105 3103 3099 3096 3095 3094 3092 3093 3093 3092 3091 3090 3089 3086 3084 3082 3080 3080 3077 3073 3070 3069 3069 3069 3069 3066 3065 3066 3066
3125 3124 3122 3120 3118 3116 3118 3119 3115 3116 3114 3111 3110 3109 3108 3107 3104 3101 3100 3098 3095 3094 3093 3094 3091 3090 3089 3087 3085 3083 3080 3078 3075 3074 3072 3069 3064 3063 3063 3063 3063 3060 3061 3061 3060
3129 3128 3127 3125 3124 3121 3120 3118 3117 3116 3115 3113 3111 3110 3108 3107 3104 3102 3101 3098 3095 3093 3092 3090 3090 3088 3086 3083 3081 3079 3077 3076 3074 3071 3069 3066 3058 3056 3054 3055 3056 3056 3057 3057 3053
3133 3130 3128 3126 3126 3123 3121 3118 3116 3115 3115 3116 3113 3111 3110 3107 3106 3103 3099 3099 3094 3093 3090 3089 3088 3086 3083 3082 3080 3076 3075 3074 3072 3070 3067 3065 3059 3051 3049 3049 3052 3054 3055 3053 3049
3135 3132 3130 3127 3125 3123 3122 3119 3117 3117 3118 3119 3114 3112 3109 3109 3107 3103 3100 3096 3093 3092 3092 3090 3086 3084 3081 3080 3078 3076 3073 3071 3069 3067 3066 3062 3063 3050 3050 3049 3052 3053 3052 3049 3044
3137 3134 3131 3129 3126 3124 3121 3119 3118 3120 3117 3117 3114 3111 3108 3105 3102 3100 3098 3097 3093 3090 3088 3087 3086 3083 3081 3079 3077 3074 3073 3070 3068 3067 3064 3055 3057 3046 3047 3049 3050 3050 3047 3044 3040
3139 3136 3133 3131 3128 3125 3122 3121 3120 3117 3121 3118 3114 3111 3109 3105 3101 3099 3097 3095 3094 3091 3087 3086 3084 3082 3080 3078 3076 3074 3072 3070 3069 3067 3063 3055 3056 3044 3046 3046 3048 3047 3044 3040 3037
3139 3137 3134 3131 3129 3126 3124 3122 3120 3120 3119 3117 3114 3112 3109 3106 3104 3102 3099 3096 3093 3091 3088 3085 3083 3082 3080 3078 3076 3074 3073 3073 3078 3069 3061 3056 3051 3044 3043 3044 3044 3043 3041 3038 3035
3140 3136 3134 3131 3128 3127 3125 3123 3122 3120 3118 3116 3114 3111 3110 3108 3108 3103 3101 3098 3096 3093 3092 3086 3082 3080 3079 3078 3078 3074 3074 3072 3071 3067 3064 3050 3045 3041 3040 3041 3041 3040 3038 3036 3034
3138 3136 3133 3130 3127 3126 3125 3123 3122 3120 3118 3115 3113 3112 3110 3108 3107 3105 3101 3098 3097 3094 3091 3088 3082 3078 3078 3078 3076 3075 3074 3072 3070 3069 3063 3047 3042 3039 3037 3038 3038 3038 3036 3035 3032
3136 3133 3131 3129 3127 3125 3125 3123 3121 3119 3118 3116 3113 3111 3109 3106 3104 3101 3101 3099 3095 3093 3091 3087 3085 3080 3076 3074 3075 3075 3072 3072 3071 3067 3064 3061 3039 3036 3037 3037 3036 3035 3034 3033 3031
3133 3131 3129 3128 3128 3123 3123 3121 3119 3117 3116 3114 3111 3109 3107 3105 3102 3100 3099 3097 3094 3092 3088 3087 3082 3075 3073 3071 3070 3070 3071 3070 3069 3065 3062 3058 3040 3034 3035 3035 3035 3033 3031 3030 3029
3130 3128 3127 3125 3124 3122 3121 3119 3117 3115 3114 3112 3110 3108 3106 3104 3103 3099 3097 3096 3094 3091 3088 3084 3080 3075 3069 3070 3067 3065 3065 3066 3066 3064 3057 3057 3037 3034 3033 3031 3030 3028 3027 3026 3025
3130 3127 3124 3122 3121 3119 3117 3116 3115 3113 3111 3110 3108 3106 3104 3103 3101 3098 3095 3092 3091 3088 3086 3082 3077 3074 3070 3066 3063 3059 3059 3060 3061 3060 3051 3040 3032 3031 3030 3028 3025 3023 3022 3022 3021
3127 3125 3124 3122 3119 3117 3115 3114 3111 3109 3107 3106 3103 3103 3102 3100 3098 3094 3092 3089 3085 3083 3082 3080 3072 3068 3063 3059 3056 3051 3049 3050 3046 3047 3047 3035 3030 3030 3028 3024 3021 3019 3018 3017 3017
3123 3122 3120 3118 3117 3114 3112 3109 3107 3106 3105 3101 3100 3098 3096 3094 3093 3090 3089 3087 3083 3077 3074 3073 3070 3064 3054 3052 3050 3043 3041 3040 3038 3037 3035 3033 3026 3026 3024 3022 3020 3017 3013 3012 3011
3117 3116 3114 3113 3111 3111 3109 3105 3103 3102 3100 3098 3097 3093 3093 3090 3087 3084 3082 3080 3077 3074 3071 3067 3065 3063 3054 3052 3046 3039 3035 3034 3032 3029 3030 3027 3025 3024 3020 3018 3015 3013 3011 3009 3007